Location: Bethune
(34.4150°N, 80.3490°W)
Time: 18:04:32
(UTC-04:00)

ISS - Visible Passes

Search period start: 23 September 2018 00:00
Search period end: 03 October 2018 00:00
Orbit: 403 x 408 km, 51.6° (Epoch: 23 September)

Date Brightness Start Highest point End Pass type
(mag) Time Alt. Az. Time Alt. Az. Time Alt. Az.
23 Sep -3.8 19:42:18 10° SW 19:45:35 89° SSE 19:48:53 10° NE visible
23 Sep -0.8 21:21:07 10° NW 21:22:29 12° NNW 21:23:11 12° NNW visible
24 Sep -1.2 20:27:55 10° W 20:30:22 19° NNW 20:32:49 10° NNE visible
25 Sep -2.1 19:35:19 10° WSW 19:38:19 32° NW 19:41:21 10° NNE visible
26 Sep -0.7 20:22:56 10° NNW 20:23:23 10° NNW 20:23:50 10° NNW visible
